#timestamp,LO_Frequency,Hit,StdDev 
1458054015.6,286047012.3,N
1458054035.4,286047012.4,N
1458054055.2,286047010.0,N
1458054075.1,286047009.9,N
1458054076.0,286047009.9,N
1458054095.8,286047009.9,Y
1458054115.6,286047002.6,P
1458054135.5,286047004.1,N
1458054155.3,286047004.7,N
1458054175.1,286047004.8,N
1458054195.9,286047003.6,N
1458054215.7,286047001.6,N
1458054235.5,286047004.4,N
1458054255.4,286047006.0,N
1458054275.2,286047004.8,N
1458054295.0,286047003.5,N
1458054295.9,286047003.5,N
1458054315.8,286047003.2,N
1458054335.6,286047003.5,N
1458054355.4,286047003.2,N
1458054375.2,286047003.9,N
1458054395.1,286047003.3,N
1458054396.0,286047003.3,N
1458054415.8,286047004.2,N
1458054435.6,286047001.9,N
1458054455.5,286047003.5,N
1458054475.3,286047007.2,Y
1458054495.1,286047001.3,P
1458054515.9,286047002.7,N
1458054535.7,286047001.4,N
1458054555.5,286046998.6,N
1458054575.4,286047000.5,N
1458054595.2,286047000.3,N
1458054615.0,286047002.1,N
1458054615.9,286047002.1,N
1458054635.8,286047000.3,N
1458054655.6,286047000.8,N
1458054675.4,286047000.4,N
1458054695.3,286047001.6,N
1458054715.1,286046999.8,N
1458054716.0,286046999.8,N
1458054735.8,286047000.1,N
1458054755.6,286047000.2,N
1458054775.5,286046998.1,N
1458054795.3,286046998.2,N
1458054815.1,286046998.9,N
1458054835.9,286046994.9,Y
1458054855.7,286046991.9,P
1458054875.5,286046993.5,N
1458054895.4,286046992.3,N
1458054915.2,286046994.4,N
1458054935.0,286046997.7,N
1458054935.9,286046997.7,N
1458054955.8,286046995.2,N
1458054975.6,286046996.1,N
1458054995.4,286046993.3,N
1458055015.3,286046995.6,N
1458055035.1,286046994.3,N
1458055036.0,286046994.3,N
1458055055.8,286046992.4,Y
1458055075.7,286046994.9,P
1458055095.5,286046995.1,P
1458055115.3,286046995.0,P
1458055135.2,286046998.0,Y
1458055155.9,286047001.5,P
1458055175.7,286047002.8,N
1458055195.6,286047001.4,N
1458055215.4,286047003.1,N
1458055235.2,286047005.4,N
1458055255.1,286047004.2,N
1458055256.0,286047004.2,N
1458055275.8,286047000.3,N
1458055295.6,286047000.7,N
1458055315.5,286047000.0,N
1458055335.3,286047000.4,N
1458055355.1,286046998.6,N
1458055375.8,286046999.5,N
1458055395.7,286046995.6,N
1458055415.5,286046999.5,N
1458055435.3,286047001.2,N
1458055455.2,286046999.1,N
1458055475.9,286046998.5,N
1458055495.7,286046997.0,N
1458055515.6,286046998.7,N
1458055535.4,286046996.5,N
1458055555.2,286046999.1,N
1458055575.1,286047000.4,N
1458055576.0,286047000.4,N
1458055595.8,286046999.6,N
1458055615.6,286047001.7,N
1458055635.5,286047005.6,N
1458055655.3,286047004.1,N
1458055675.1,286047002.3,N
1458055695.9,286047002.1,N
1458055715.7,286047004.2,N
1458055735.5,286047003.5,N
1458055755.3,286047005.6,N
1458055775.2,286047005.1,N
1458055795.0,286047004.0,N
1458055795.9,286047004.0,N
1458055815.7,286047003.5,N
1458055835.6,286047003.7,N
1458055855.4,286047001.3,N
1458055875.2,286047003.5,N
1458055895.1,286047004.4,N
1458055896.0,286047004.4,N
1458055915.8,286047002.2,N
1458055935.6,286047002.1,N
1458055955.5,286046999.4,N
1458055975.3,286046997.8,N
1458055995.1,286046999.3,N
1458056015.9,286046997.6,N
1458056035.7,286046999.2,N
1458056055.5,286047000.7,N
1458056075.4,286046999.6,N
1458056095.2,286046995.7,N
1458056115.0,286046995.7,N
1458056115.9,286046995.7,N
1458056135.8,286046995.0,N
1458056155.6,286046998.6,N
1458056175.4,286046997.3,N
1458056195.3,286046997.5,N
1458056215.1,286046997.1,N
1458056216.0,286046997.1,N
1458056235.8,286047001.1,N
1458056255.6,286046998.6,N
1458056275.5,286047002.4,N
1458056295.3,286046999.8,N
1458056315.1,286047000.6,N
1458056335.9,286046997.9,N
1458056355.7,286046997.0,N
1458056375.5,286046996.6,N
1458056395.4,286046998.9,N
1458056415.2,286046999.0,N
1458056435.0,286046996.5,N
1458056435.9,286046996.5,N
1458056455.8,286047000.8,N
1458056475.6,286046997.8,N
1458056495.4,286046996.9,N
1458056515.3,286046996.8,N
1458056535.1,286046997.7,N
1458056536.0,286046997.7,N
1458056555.8,286046997.6,N
1458056575.7,286046997.0,N
1458056595.5,286046996.5,N
1458056615.3,286047000.3,N
1458056635.1,286046998.3,N
1458056655.9,286047004.1,N
1458056675.7,286047003.3,N
1458056695.5,286046999.0,N
1458056715.4,286047001.0,N
1458056735.2,286047002.1,N
1458056755.0,286047001.9,N
1458056755.9,286047001.9,N
1458056775.8,286047004.2,N
1458056795.6,286047005.9,N
1458056815.4,286046998.4,N
1458056835.3,286047002.7,N
1458056855.1,286047002.4,N
1458056856.0,286047002.4,N
1458056875.8,286046999.9,N
1458056895.7,286046999.1,N
1458056915.5,286047000.2,N
1458056935.3,286047001.8,N
1458056955.2,286047000.3,N
1458056975.9,286046998.8,N
1458056995.7,286046998.3,N
1458057015.6,286047000.7,N
1458057035.4,286046999.1,N
1458057055.2,286046997.3,N
1458057075.0,286046997.2,N
1458057076.0,286046997.2,N
1458057095.8,286046995.7,N
1458057115.6,286046997.5,N
1458057135.4,286046999.3,N
1458057155.3,286046996.9,N
1458057175.1,286046996.5,N
1458057195.8,286046999.1,N
1458057215.7,286046997.1,N
1458057235.5,286046993.8,N
1458057255.3,286046992.0,Y
1458057275.2,286046994.1,P
1458057295.9,286046996.4,N
1458057315.7,286046992.1,P
1458057335.6,286046993.9,N
1458057355.4,286046994.9,N
1458057375.2,286046997.0,N
1458057395.1,286046996.9,N
1458057396.0,286046996.9,N
1458057415.8,286046996.7,N
1458057435.6,286046999.7,N
1458057455.5,286046998.2,N
1458057475.3,286046997.1,N
1458057495.1,286046997.1,N
1458057515.8,286046995.1,N
1458057535.7,286046996.4,N
1458057555.5,286046993.5,Y
1458057575.3,286046998.6,P
1458057595.2,286046998.3,N
